Yankton, SD

3:44 PM CST on January 24, 2017 (GMT -0600)
Gurney Municipal

Weather History for KYKN - June, 2013

Change the Weather History Date:

Thursday, June 20, 2013

  Actual Average Record
Temperature  
Mean Temperature 78 °F -  
Max Temperature 87 °F 84 °F 106 °F (1988)
Min Temperature 69 °F 58 °F 45 °F (1961)
Cooling Degree Days 13    
Growing Degree Days 28 (Base 50)    
Moisture  
Dew Point 67 °F    
Average Humidity 66    
Maximum Humidity 78    
Minimum Humidity 55    
Precipitation  
Precipitation 0.00 in - - ()
Sea Level Pressure  
Sea Level Pressure 29.82 in    
Wind  
Wind Speed 12 mph (SSE)    
Max Wind Speed 24 mph    
Max Gust Speed 31 mph    
Visibility 10 miles    
Events      
Averages and records for this station are not official NWS values.
T = Trace of Precipitation, MM = Missing Value Source: NWS Daily Summary

Daily Weather History Graph

Daily Weather History Graph

Search for Another Location

Airport or City:

Trip Planner

Search our weather history database for the weather conditions in past years. The results will help you decide how hot, cold, wet, or windy it might be!

Date:

Astronomy

Jun. 20, 2013 Rise Set
Actual Time 5:50 AM CDT 9:11 PM CDT
Civil Twilight 5:15 AM CDT 9:47 PM CDT
Nautical Twilight 4:29 AM CDT 10:33 PM CDT
Astronomical Twilight 3:32 AM CDT 11:29 PM CDT
Moon 6:13 PM CDT (6/20) 3:21 AM CDT (6/20)
Length of Visible Light 16h 31m
Length of Day
15h 21m
Waxing Gibbous, 89% of the Moon is Illuminated
Jun 20
Waxing Gibbous
Jun 23
Full
Jun 29
Last Quarter
Jul 8
New
Jul 15
First Quarter

Hourly Weather History & Observations

Time (CDT) Temp. Heat Index Dew Point Humidity Pressure Visibility Wind Dir Wind Speed Gust Speed Precip Events Conditions
12:15 AM 75.2 °F - 60.8 °F 61% 29.88 in 10.0 mi SSE 11.5 mph 18.4 mph N/A   Scattered Clouds
12:35 AM 75.2 °F - 60.8 °F 61% 29.88 in 10.0 mi SSE 12.7 mph - N/A   Clear
12:55 AM 75.2 °F - 60.8 °F 61% 29.87 in 10.0 mi SSE 13.8 mph - N/A   Clear
1:15 AM 75.2 °F - 60.8 °F 61% 29.88 in 10.0 mi SSE 13.8 mph 23.0 mph N/A   Mostly Cloudy
1:35 AM 75.2 °F - 60.8 °F 61% 29.87 in 10.0 mi SSE 13.8 mph - N/A   Mostly Cloudy
1:55 AM 73.4 °F - 60.8 °F 65% 29.86 in 10.0 mi SSE 13.8 mph 18.4 mph N/A   Clear
2:15 AM 73.4 °F - 60.8 °F 65% 29.87 in 10.0 mi SSE 12.7 mph 20.7 mph N/A   Clear
2:35 AM 73.4 °F - 60.8 °F 65% 29.87 in 10.0 mi SE 10.4 mph - N/A   Clear
2:55 AM 71.6 °F - 60.8 °F 69% 29.88 in 10.0 mi SE 11.5 mph - N/A   Clear
3:15 AM 71.6 °F - 60.8 °F 69% 29.87 in 10.0 mi SSE 9.2 mph - N/A   Clear
3:35 AM 71.6 °F - 60.8 °F 69% 29.87 in 10.0 mi SE 10.4 mph - N/A   Clear
3:55 AM 71.6 °F - 60.8 °F 69% 29.86 in 10.0 mi SE 10.4 mph - N/A   Clear
4:15 AM 71.6 °F - 60.8 °F 69% 29.86 in 10.0 mi SE 8.1 mph - N/A   Clear
4:35 AM 69.8 °F - 60.8 °F 73% 29.86 in 10.0 mi SE 9.2 mph - N/A   Clear
4:55 AM 69.8 °F - 60.8 °F 73% 29.86 in 10.0 mi SE 9.2 mph - N/A   Clear
5:15 AM 69.8 °F - 60.8 °F 73% 29.86 in 10.0 mi SE 6.9 mph - N/A   Clear
5:35 AM 69.8 °F - 60.8 °F 73% 29.87 in 10.0 mi ESE 6.9 mph - N/A   Clear
5:55 AM 69.8 °F - 60.8 °F 73% 29.86 in 10.0 mi SE 9.2 mph - N/A   Clear
6:15 AM 69.8 °F - 60.8 °F 73% 29.86 in 10.0 mi SE 9.2 mph - N/A   Clear
6:35 AM 69.8 °F - 60.8 °F 73% 29.86 in 10.0 mi ESE 5.8 mph - N/A   Clear
6:55 AM 69.8 °F - 62.6 °F 78% 29.86 in 10.0 mi ESE 9.2 mph - N/A   Clear
7:15 AM 69.8 °F - 62.6 °F 78% 29.86 in 10.0 mi SE 11.5 mph - N/A   Clear
7:35 AM 69.8 °F - 62.6 °F 78% 29.86 in 10.0 mi SE 9.2 mph - N/A   Clear
7:55 AM 71.6 °F - 64.4 °F 78% 29.86 in 10.0 mi SE 10.4 mph - N/A   Clear
8:15 AM 71.6 °F - 64.4 °F 78% 29.86 in 10.0 mi SSE 9.2 mph - N/A   Clear
8:35 AM 73.4 °F - 64.4 °F 73% 29.88 in 10.0 mi SSE 11.5 mph 16.1 mph N/A   Clear
8:55 AM 73.4 °F - 64.4 °F 73% 29.88 in 10.0 mi SE 12.7 mph 16.1 mph N/A   Clear
9:15 AM 75.2 °F - 66.2 °F 73% 29.87 in 10.0 mi SE 13.8 mph 18.4 mph N/A   Clear
9:35 AM 75.2 °F - 66.2 °F 73% 29.87 in 10.0 mi SE 12.7 mph - N/A   Clear
9:55 AM 77.0 °F - 66.2 °F 69% 29.87 in 10.0 mi SE 12.7 mph 21.9 mph N/A   Clear
10:15 AM 78.8 °F - 68.0 °F 69% 29.86 in 10.0 mi SE 13.8 mph 19.6 mph N/A   Partly Cloudy
10:35 AM 78.8 °F - 68.0 °F 69% 29.85 in 10.0 mi SE 12.7 mph 21.9 mph N/A   Mostly Cloudy
10:55 AM 78.8 °F - 68.0 °F 69% 29.84 in 10.0 mi SE 16.1 mph 23.0 mph N/A   Overcast
11:15 AM 80.6 °F 83.2 °F 68.0 °F 65% 29.82 in 10.0 mi SSE 20.7 mph 29.9 mph N/A   Scattered Clouds
11:35 AM 80.6 °F 83.9 °F 69.8 °F 70% 29.81 in 10.0 mi SSE 20.7 mph 27.6 mph N/A   Mostly Cloudy
11:55 AM 80.6 °F 83.2 °F 68.0 °F 65% 29.81 in 10.0 mi SSE 19.6 mph 31.1 mph N/A   Mostly Cloudy
12:15 PM 80.6 °F 82.7 °F 66.2 °F 61% 29.81 in 10.0 mi SSE 24.2 mph 29.9 mph N/A   Mostly Cloudy
12:35 PM 80.6 °F 83.2 °F 68.0 °F 65% 29.83 in 10.0 mi SSE 19.6 mph 23.0 mph N/A   Overcast
12:55 PM 82.4 °F 86.3 °F 69.8 °F 66% 29.83 in 10.0 mi South 15.0 mph 23.0 mph N/A   Overcast
1:15 PM 82.4 °F 86.3 °F 69.8 °F 66% 29.83 in 10.0 mi SSE 13.8 mph 21.9 mph N/A   Overcast
1:35 PM 84.2 °F 88.4 °F 69.8 °F 62% 29.83 in 10.0 mi SSE 13.8 mph 23.0 mph N/A   Overcast
1:55 PM 84.2 °F 88.4 °F 69.8 °F 62% 29.82 in 10.0 mi SSE 15.0 mph 20.7 mph N/A   Overcast
2:15 PM 84.2 °F 88.4 °F 69.8 °F 62% 29.81 in 10.0 mi South 13.8 mph 19.6 mph N/A   Mostly Cloudy
2:35 PM 84.2 °F 88.4 °F 69.8 °F 62% 29.80 in 10.0 mi South 15.0 mph 18.4 mph N/A   Mostly Cloudy
2:55 PM 86.0 °F 90.4 °F 69.8 °F 58% 29.80 in 10.0 mi SSE 12.7 mph - N/A   Mostly Cloudy
3:15 PM 86.0 °F 90.4 °F 69.8 °F 58% 29.79 in 10.0 mi SSE 16.1 mph - N/A   Scattered Clouds
3:35 PM 87.8 °F 92.6 °F 69.8 °F 55% 29.79 in 10.0 mi SSE 11.5 mph - N/A   Scattered Clouds
3:55 PM 87.8 °F 92.6 °F 69.8 °F 55% 29.77 in 10.0 mi SSE 19.6 mph 25.3 mph N/A   Scattered Clouds
4:15 PM 87.8 °F 92.6 °F 69.8 °F 55% 29.77 in 10.0 mi SSE 15.0 mph - N/A   Partly Cloudy
4:35 PM 87.8 °F 92.6 °F 69.8 °F 55% 29.77 in 10.0 mi SSE 16.1 mph 19.6 mph N/A   Scattered Clouds
4:55 PM 87.8 °F 92.6 °F 69.8 °F 55% 29.77 in 10.0 mi South 16.1 mph - N/A   Scattered Clouds
5:15 PM 87.8 °F 92.6 °F 69.8 °F 55% 29.76 in 10.0 mi SSE 13.8 mph - N/A   Partly Cloudy
5:35 PM 87.8 °F 92.6 °F 69.8 °F 55% 29.76 in 10.0 mi SSE 13.8 mph 18.4 mph N/A   Clear
5:55 PM 87.8 °F 92.6 °F 69.8 °F 55% 29.76 in 10.0 mi SSE 15.0 mph - N/A   Partly Cloudy
6:15 PM 87.8 °F 92.6 °F 69.8 °F 55% 29.75 in 10.0 mi SSE 12.7 mph - N/A   Clear
6:35 PM 87.8 °F 92.6 °F 69.8 °F 55% 29.76 in 10.0 mi SSE 10.4 mph 19.6 mph N/A   Clear
6:55 PM 86.0 °F 90.4 °F 69.8 °F 58% 29.76 in 10.0 mi SSE 9.2 mph - N/A   Scattered Clouds
7:15 PM 86.0 °F 90.4 °F 69.8 °F 58% 29.76 in 10.0 mi SSE 11.5 mph - N/A   Mostly Cloudy
7:35 PM 86.0 °F 90.4 °F 69.8 °F 58% 29.76 in 10.0 mi SE 11.5 mph - N/A   Scattered Clouds
7:55 PM 86.0 °F 90.4 °F 69.8 °F 58% 29.77 in 10.0 mi SSE 10.4 mph 16.1 mph N/A   Scattered Clouds
8:15 PM 84.2 °F 89.6 °F 71.6 °F 66% 29.76 in 10.0 mi SSE 11.5 mph - N/A   Partly Cloudy
8:35 PM 84.2 °F 88.4 °F 69.8 °F 62% 29.76 in 10.0 mi SSE 10.4 mph - N/A   Clear
8:55 PM 84.2 °F 88.4 °F 69.8 °F 62% 29.76 in 10.0 mi SSE 15.0 mph - N/A   Clear
9:15 PM 84.2 °F 88.4 °F 69.8 °F 62% 29.76 in 10.0 mi SSE 12.7 mph - N/A   Clear
9:35 PM 82.4 °F 86.3 °F 69.8 °F 66% 29.77 in 10.0 mi SE 10.4 mph - N/A   Clear
9:55 PM 82.4 °F 86.3 °F 69.8 °F 66% 29.77 in 10.0 mi SE 10.4 mph - N/A   Clear
10:15 PM 82.4 °F 86.3 °F 69.8 °F 66% 29.78 in 10.0 mi SE 8.1 mph - N/A   Clear
10:35 PM 82.4 °F 87.2 °F 71.6 °F 70% 29.78 in 10.0 mi SSE 9.2 mph - N/A   Clear
10:55 PM 82.4 °F 87.2 °F 71.6 °F 70% 29.78 in 10.0 mi SSE 15.0 mph 20.7 mph N/A   Clear
11:15 PM 82.4 °F 87.2 °F 71.6 °F 70% 29.79 in 10.0 mi SSE 11.5 mph - N/A   Clear
11:35 PM 82.4 °F 87.2 °F 71.6 °F 70% 29.78 in 10.0 mi SSE 12.7 mph 18.4 mph N/A   Partly Cloudy
11:55 PM 80.6 °F 84.6 °F 71.6 °F 74% 29.77 in 10.0 mi SSE 11.5 mph 17.3 mph N/A   Clear